Flag for Congo Weather past 2 weeks in Dolisie, Congo

77 °F

Drizzle. Mostly cloudy.

Feels Like: 78 °F
Forecast: 71 / 85 °F
Wind: No wind

Location: Pointe Airport-Noire

Current Time: Oct 9, 2015 at 6:08:59 AM

Latest Report: Oct 9, 2015 at 5:00 AM

Visibility: 2 mi

Pressure: 29.92 "Hg

Humidity: 94%

Dew point: 75 °F

Location of DolisieLocation

Historic Weather in Dolisie — Graph


Dolisie temperature yesterday

Maximum temperature yesterday: 81 °F (at 1:00 PM)
Minimum temperature yesterday: 75 °F (at 6:00 AM)
Average temperature yesterday: 78 °F

Past Weeks' High & Low Weather Summary

High84 °F (Sep 27, 2:00 PM)94% (Sep 24, 4:00 AM)30.01 "Hg (Sep 24, 4:00 AM)
Low73 °F (Sep 25, 7:00 AM)62% (Sep 27, 11:00 AM)29.80 "Hg (Sep 26, 3:00 PM)
Average78 °F84%29.91 "Hg
* Reported Sep 24 4:00 AM — Oct 9 4:00 AM, Dolisie, Weather by CustomWeather, © 2015

Note: Actual official high and low records may vary slightly from our data, if they occured in-between our weather recording intervals... More about our weather records


Dolisie weather history for previous 24 hours

Time TempWeatherWind HumidityBarometerVisibility
4:00 AM
Fri, Oct 9
77 °FOvercast.No wind94%29.92 "Hg4 mi
3:00 AM77 °FMostly cloudy.7 mph89%29.95 "Hg4 mi
2:00 AM77 °FMostly cloudy.7 mph89%29.95 "Hg4 mi
1:00 AM77 °FMostly cloudy.7 mph89%29.95 "Hg4 mi
12:00 AM77 °FMostly cloudy.5 mph89%29.95 "Hg4 mi
10:00 PM
Thu, Oct 8
77 °FPartly cloudy.5 mph89%29.95 "Hg4 mi
9:00 PM77 °FPartly cloudy.7 mph89%29.92 "Hg4 mi
8:00 PM77 °FPartly cloudy.7 mph89%29.89 "Hg4 mi
7:00 PM77 °FPartly cloudy.7 mph89%29.89 "Hg4 mi
6:00 PM79 °FDrizzle. Mostly cloudy.7 mph89%29.89 "Hg4 mi
5:00 PM79 °FBroken clouds.7 mph89%29.86 "HgN/A
4:00 PM79 °FBroken clouds.12 mph84%29.86 "HgN/A
3:00 PM79 °FBroken clouds.12 mph84%29.89 "HgN/A
2:00 PM81 °FBroken clouds.9 mph79%29.92 "HgN/A
1:00 PM81 °FMore clouds than sun.12 mph84%29.95 "HgN/A
12:00 PM79 °FBroken clouds.7 mph89%29.98 "HgN/A
11:00 AM77 °FDrizzle. Cloudy.5 mph94%29.98 "Hg2 mi
10:00 AM77 °FMore clouds than sun.12 mph89%30.01 "HgN/A
9:00 AM79 °FMore clouds than sun.7 mph84%29.98 "Hg5 mi
8:00 AM77 °FBroken clouds.7 mph89%29.98 "Hg4 mi
7:00 AM75 °FLight rain. Mostly cloudy.No wind94%29.95 "Hg3 mi
6:00 AM75 °FLight rain. Mostly cloudy.No wind94%29.95 "Hg4 mi
Weather by CustomWeather, © 2015

See weather overviewHow to use our weather pages